This demonstration page uses our WeatherBlox Daily Observations layout. Learn more.

Left ArrowRight Arrow

Hourly Observations for June 7, 2018

Temp ( °F °C ) Dew Point ( °F °C ) Humidity (%) Winds ( mph kmh ) Pressure ( in mb ) Visibility ( mi km ) Precip ( " mm )
3:56 am 03:56 Partly Cloudy 68 20 59 15 73 73 S 5 7 30.00 1016 10 16 0.00 0.00
4:31 am 04:31 Cloudy 66 19 61 16 83 83 SSW 6 9 30.00 1016 8 13 0.00 0.00
4:41 am 04:41 Cloudy 66 19 61 16 83 83 SE 10 17 29.97 1015 7 11 0.00 0.00
4:56 am 04:56 Cloudy 65 18.3 61 16.1 87 87 SE 16 26 29.95 1014 10 16 0.02 0.51
5:56 am 05:56 Mostly Clear 64 17.8 60 15.6 87 87 SE 21 33 29.82 1010 10 16 0.05 1.27
6:56 am 06:56 Sunny 66 18.9 59 15 78 78 SE 13 20 29.82 1010 10 16 0.00 0.00
7:56 am 07:56 Sunny 66 18.9 61 16.1 84 84 ENE 9 15 29.89 1012 10 16 0.00 0.00
8:56 am 08:56 Sunny 69 20.6 63 17.2 81 81 NE 15 24 29.91 1013 10 16 0.00 0.00
9:56 am 09:56 Sunny 70 21.1 63 17.2 79 79 E 7 11 29.93 1014 10 16 0.00 0.00
10:48 am 10:48 Mostly Sunny 72 22 61 16 69 69 SSE 3 6 29.91 1013 9 14 0.00 0.00
10:56 am 10:56 Mostly Sunny 73 22.8 62 16.7 69 69 SSE 3 6 29.94 1014 10 16 0.00 0.00
11:56 am 11:56 Sunny 75 23.9 62 16.7 64 64 S 6 9 29.94 1014 10 16 0.00 0.00
12:56 pm 12:56 Sunny 76 24.4 62 16.7 62 62 Calm 29.95 1014 10 16 0.00 0.00
1:56 pm 13:56 Mostly Sunny 78 25.6 63 17.2 60 60 VRB 6 9 29.94 1014 10 16 0.00 0.00
2:56 pm 14:56 Partly Cloudy 80 26.7 64 17.8 58 58 ESE 9 15 29.94 1014 10 16 0.00 0.00
3:40 pm 15:40 Mostly Sunny 81 27 64 18 58 58 SE 6 9 29.88 1012 10 16 0.00 0.00
3:56 pm 15:56 Mostly Sunny 80 26.7 65 18.3 60 60 SE 12 19 29.92 1013 9 14 0.00 0.00
5:56 pm 17:56 Partly Cloudy 80 26.7 64 17.8 58 58 SE 10 17 29.91 1013 10 16 0.00 0.03
6:56 pm 18:56 Sunny 81 27.2 64 17.8 57 57 SE 14 22 29.90 1013 10 16 0.00 0.00
7:56 pm 19:56 Sunny 79 26.1 65 18.3 62 62 SE 14 22 29.90 1013 10 16 0.00 0.00
8:56 pm 20:56 Sunny 76 24.4 63 17.2 64 64 SE 9 15 29.90 1013 10 16 0.00 0.00
9:56 pm 21:56 Clear 73 22.8 64 17.8 74 74 SE 7 11 29.92 1013 10 16 0.00 0.00
10:56 pm 22:56 Clear 72 22.2 64 17.8 76 76 SSE 7 11 29.96 1014 10 16 0.00 0.00
11:56 pm 23:56 Clear 69 20.6 65 18.3 87 87 SSE 5 7 29.98 1015 10 16 0.00 0.00

Powered by AerisWeather